Back to catalog

STARLINK-5279

AliveCommunicationsVLEO
NORAD 54165·PAYLOAD·🇺🇸 United States

Launched Oct 28, 2022 from Vandenberg Space Force Base

Loading…

Next Passes (next 24 hours)

TLE

FreshSource: CelesTrak SupGP

Epoch: Sep 15, 2026, 01:27 UTC

1 54165C 22141J   26258.06090278  .00690200  00000+0  26807-1 0  2584
2 54165  53.1610 242.6839 0001503  94.3675 340.8205 15.25197556    15

Track STARLINK-5279 in real time with AllMySat

Download on the App Store